Location: São Paulo
(23.5507°S, 46.6334°W)
Time: 08:23:32
(UTC-03:00)

Vanguard 3 - Pass Details

Date: 17 February 2026
Orbit: 507 x 3205 km, 33.4° (Epoch: 7 March)

Event Time Altitude Azimuth Distance (km) Brightness Sun altitude
Exits shadow 04:37:55 22° 274° (W) 2,996 9.4 -17.8°
Maximum altitude 04:45:28 68° 195° (SSW) 2,246 9.3 -16.2°
Drops below altitude 10° 05:02:26 10° 113° (ESE) 5,840 13.0 -12.5°
Sets 05:07:37 0° 110° (ESE) 7,052 14.2 -11.4°
